Time,TemperatureF,DewpointF,PressureIn,WindDirection,WindDirectionDegrees,WindSpeedMPH,WindSpeedGustMPH,Humidity,HourlyPrecipIn,Conditions,Clouds,dailyrainin,SoftwareType,DateUTC
2013-02-15 00:02:00,49.0,-99.9,30.12,NNW,335,8.0,13.0,-999,-99.99,,,-99.99,,2013-02-15 05:02:00,
2013-02-15 00:12:00,49.0,-99.9,30.11,NNW,341,7.0,11.0,-999,-99.99,,,-99.99,,2013-02-15 05:12:00,
2013-02-15 00:22:00,49.0,-99.9,30.12,NW,324,9.0,10.0,-999,-99.99,,,-99.99,,2013-02-15 05:22:00,
2013-02-15 00:33:00,48.0,-99.9,30.11,NNW,340,9.0,10.0,-999,-99.99,,,-99.99,,2013-02-15 05:33:00,
2013-02-15 00:42:00,48.0,-99.9,30.08,North,9,8.0,12.0,-999,-99.99,,,-99.99,,2013-02-15 05:42:00,
2013-02-15 00:52:00,48.0,-99.9,30.11,NNW,336,9.0,13.0,-999,-99.99,,,-99.99,,2013-02-15 05:52:00,
2013-02-15 01:02:00,48.0,-99.9,30.11,NNW,336,9.0,12.0,-999,-99.99,,,-99.99,,2013-02-15 06:02:00,
2013-02-15 01:11:00,48.0,-99.9,30.11,NNW,343,7.0,9.0,-999,-99.99,,,-99.99,,2013-02-15 06:11:00,
2013-02-15 01:22:00,48.0,-99.9,30.10,North,356,5.0,9.0,-999,-99.99,,,-99.99,,2013-02-15 06:22:00,
2013-02-15 01:32:00,48.0,-99.9,30.09,North,357,6.0,9.0,-999,-99.99,,,-99.99,,2013-02-15 06:32:00,
2013-02-15 01:42:00,48.0,-99.9,30.10,NNW,348,7.0,9.0,-999,-99.99,,,-99.99,,2013-02-15 06:42:00,
2013-02-15 01:52:00,48.0,-99.9,30.10,NNW,348,6.0,9.0,-999,-99.99,,,-99.99,,2013-02-15 06:52:00,
2013-02-15 02:01:00,48.0,-99.9,30.10,NNW,347,6.0,9.0,-999,-99.99,,,-99.99,,2013-02-15 07:01:00,
2013-02-15 02:11:00,47.0,-99.9,30.10,NNW,339,6.0,7.0,-999,-99.99,,,-99.99,,2013-02-15 07:11:00,
2013-02-15 02:21:00,47.0,-99.9,30.10,NNW,344,5.0,7.0,-999,-99.99,,,-99.99,,2013-02-15 07:21:00,
2013-02-15 02:32:00,47.0,-99.9,30.11,NNW,329,5.0,7.0,-999,-99.99,,,-99.99,,2013-02-15 07:32:00,
2013-02-15 02:42:00,47.0,-99.9,30.11,NNW,336,5.0,7.0,-999,-99.99,,,-99.99,,2013-02-15 07:42:00,
2013-02-15 02:52:00,47.0,-99.9,30.10,NNW,334,3.0,5.0,-999,-99.99,,,-99.99,,2013-02-15 07:52:00,
2013-02-15 03:01:00,47.0,-99.9,30.10,NNW,343,3.0,5.0,-999,-99.99,,,-99.99,,2013-02-15 08:01:00,
2013-02-15 03:11:00,47.0,-99.9,30.09,NNW,334,4.0,6.0,-999,-99.99,,,-99.99,,2013-02-15 08:11:00,
2013-02-15 03:22:00,47.0,-99.9,30.09,NNW,341,6.0,7.0,-999,-99.99,,,-99.99,,2013-02-15 08:22:00,
2013-02-15 03:32:00,47.0,-99.9,30.10,NNW,330,8.0,9.0,-999,-99.99,,,-99.99,,2013-02-15 08:32:00,
2013-02-15 03:42:00,47.0,-99.9,30.10,NNW,328,9.0,11.0,-999,-99.99,,,-99.99,,2013-02-15 08:42:00,
2013-02-15 03:53:00,47.0,-99.9,30.10,NNW,328,8.0,12.0,-999,-99.99,,,-99.99,,2013-02-15 08:53:00,
2013-02-15 04:02:00,46.0,-99.9,30.10,NNW,332,9.0,12.0,-999,-99.99,,,-99.99,,2013-02-15 09:02:00,
2013-02-15 04:12:00,46.0,-99.9,30.10,NNW,333,9.0,12.0,-999,-99.99,,,-99.99,,2013-02-15 09:12:00,
2013-02-15 04:22:00,46.0,-99.9,30.10,NNW,328,9.0,11.0,-999,-99.99,,,-99.99,,2013-02-15 09:22:00,
2013-02-15 04:32:00,46.0,-99.9,30.10,NNW,327,6.0,11.0,-999,-99.99,,,-99.99,,2013-02-15 09:32:00,
2013-02-15 04:42:00,46.0,-99.9,30.09,North,355,6.0,8.0,-999,-99.99,,,-99.99,,2013-02-15 09:42:00,
2013-02-15 04:52:00,46.0,-99.9,30.10,NNW,336,5.0,7.0,-999,-99.99,,,-99.99,,2013-02-15 09:52:00,
2013-02-15 05:02:00,46.0,-99.9,30.10,NNW,329,9.0,11.0,-999,-99.99,,,-99.99,,2013-02-15 10:02:00,
2013-02-15 05:11:00,45.0,-99.9,30.11,NNW,333,8.0,11.0,-999,-99.99,,,-99.99,,2013-02-15 10:11:00,
2013-02-15 05:22:00,45.0,-99.9,30.11,NNW,328,9.0,12.0,-999,-99.99,,,-99.99,,2013-02-15 10:22:00,
2013-02-15 05:32:00,45.0,-99.9,30.11,NNW,332,9.0,14.0,-999,-99.99,,,-99.99,,2013-02-15 10:32:00,
2013-02-15 05:42:00,45.0,-99.9,30.12,NNW,335,7.0,11.0,-999,-99.99,,,-99.99,,2013-02-15 10:42:00,
2013-02-15 05:52:00,45.0,-99.9,30.11,NNW,345,8.0,10.0,-999,-99.99,,,-99.99,,2013-02-15 10:52:00,
2013-02-15 06:01:00,44.0,-99.9,30.11,NNW,345,8.0,11.0,-999,-99.99,,,-99.99,,2013-02-15 11:01:00,
2013-02-15 06:11:00,44.0,-99.9,30.11,NNW,346,9.0,11.0,-999,-99.99,,,-99.99,,2013-02-15 11:11:00,
2013-02-15 06:23:00,45.0,-99.9,30.11,NNW,344,9.0,12.0,-999,-99.99,,,-99.99,,2013-02-15 11:23:00,
2013-02-15 06:32:00,44.0,-99.9,30.11,NNW,344,6.0,8.0,-999,-99.99,,,-99.99,,2013-02-15 11:32:00,
2013-02-15 06:43:00,44.0,-99.9,30.11,NNW,345,7.0,9.0,-999,-99.99,,,-99.99,,2013-02-15 11:43:00,
2013-02-15 06:52:00,44.0,-99.9,30.11,NNW,344,9.0,11.0,-999,-99.99,,,-99.99,,2013-02-15 11:52:00,
2013-02-15 07:02:00,44.0,-99.9,30.11,NNW,341,10.0,13.0,-999,-99.99,,,-99.99,,2013-02-15 12:02:00,
2013-02-15 07:11:00,43.0,-99.9,30.12,NNW,341,11.0,13.0,-999,-99.99,,,-99.99,,2013-02-15 12:11:00,
2013-02-15 07:22:00,43.0,-99.9,30.12,NNW,338,9.0,13.0,-999,-99.99,,,-99.99,,2013-02-15 12:22:00,
2013-02-15 07:32:00,43.0,-99.9,30.12,NNW,334,8.0,12.0,-999,-99.99,,,-99.99,,2013-02-15 12:32:00,
2013-02-15 07:42:00,44.0,-99.9,30.13,NNW,330,10.0,12.0,-999,-99.99,,,-99.99,,2013-02-15 12:42:00,
2013-02-15 07:53:00,44.0,-99.9,30.13,NNW,330,9.0,11.0,-999,-99.99,,,-99.99,,2013-02-15 12:53:00,
2013-02-15 08:02:00,44.0,-99.9,30.14,NNW,330,9.0,11.0,-999,-99.99,,,-99.99,,2013-02-15 13:02:00,
2013-02-15 08:11:00,44.0,-99.9,30.14,NW,326,11.0,13.0,-999,-99.99,,,-99.99,,2013-02-15 13:11:00,
2013-02-15 08:22:00,44.0,-99.9,30.14,NNW,328,9.0,13.0,-999,-99.99,,,-99.99,,2013-02-15 13:22:00,
2013-02-15 08:32:00,45.0,-99.9,30.14,NNW,334,9.0,12.0,-999,-99.99,,,-99.99,,2013-02-15 13:32:00,
2013-02-15 08:42:00,46.0,-99.9,30.14,NNW,338,8.0,11.0,-999,-99.99,,,-99.99,,2013-02-15 13:42:00,
2013-02-15 08:52:00,47.0,-99.9,30.15,NNW,341,6.0,8.0,-999,-99.99,,,-99.99,,2013-02-15 13:52:00,
2013-02-15 09:01:00,47.0,-99.9,30.15,NNW,342,7.0,9.0,-999,-99.99,,,-99.99,,2013-02-15 14:01:00,
2013-02-15 09:12:00,49.0,-99.9,30.15,NNW,335,5.0,7.0,-999,-99.99,,,-99.99,,2013-02-15 14:12:00,
2013-02-15 09:22:00,49.0,-99.9,30.15,NNW,343,6.0,7.0,-999,-99.99,,,-99.99,,2013-02-15 14:22:00,
2013-02-15 09:32:00,51.0,-99.9,30.15,North,11,3.0,6.0,-999,-99.99,,,-99.99,,2013-02-15 14:32:00,
2013-02-15 09:42:00,52.0,-99.9,30.15,North,11,7.0,10.0,-999,-99.99,,,-99.99,,2013-02-15 14:42:00,
2013-02-15 09:52:00,52.0,-99.9,30.16,NNE,15,8.0,11.0,-999,-99.99,,,-99.99,,2013-02-15 14:52:00,
2013-02-15 10:02:00,52.0,-99.9,30.16,North,9,9.0,11.0,-999,-99.99,,,-99.99,,2013-02-15 15:02:00,
2013-02-15 10:11:00,53.0,-99.9,30.16,NNE,12,7.0,10.0,-999,-99.99,,,-99.99,,2013-02-15 15:11:00,
2013-02-15 10:22:00,54.0,-99.9,30.15,North,7,8.0,12.0,-999,-99.99,,,-99.99,,2013-02-15 15:22:00,
2013-02-15 10:32:00,54.0,-99.9,30.15,NE,49,10.0,13.0,-999,-99.99,,,-99.99,,2013-02-15 15:32:00,
2013-02-15 10:42:00,54.0,-99.9,30.16,NE,48,10.0,13.0,-999,-99.99,,,-99.99,,2013-02-15 15:42:00,
2013-02-15 10:52:00,54.0,-99.9,30.16,NE,46,10.0,12.0,-999,-99.99,,,-99.99,,2013-02-15 15:52:00,
2013-02-15 11:02:00,54.0,-99.9,30.16,NE,45,10.0,11.0,-999,-99.99,,,-99.99,,2013-02-15 16:02:00,
2013-02-15 11:12:00,54.0,-99.9,30.16,ENE,60,10.0,13.0,-999,-99.99,,,-99.99,,2013-02-15 16:12:00,
2013-02-15 11:22:00,54.0,-99.9,30.16,NE,38,9.0,11.0,-999,-99.99,,,-99.99,,2013-02-15 16:22:00,
2013-02-15 11:32:00,54.0,-99.9,30.16,NE,54,10.0,11.0,-999,-99.99,,,-99.99,,2013-02-15 16:32:00,
2013-02-15 11:43:00,55.0,-99.9,30.16,NE,49,6.0,12.0,-999,-99.99,,,-99.99,,2013-02-15 16:43:00,
2013-02-15 11:52:00,54.0,-99.9,30.15,ENE,57,9.0,14.0,-999,-99.99,,,-99.99,,2013-02-15 16:52:00,
2013-02-15 12:01:00,55.0,-99.9,30.15,NE,55,9.0,12.0,-999,-99.99,,,-99.99,,2013-02-15 17:01:00,
2013-02-15 12:11:00,55.0,-99.9,30.15,ENE,57,8.0,11.0,-999,-99.99,,,-99.99,,2013-02-15 17:11:00,
2013-02-15 12:21:00,55.0,-99.9,30.14,ENE,66,9.0,11.0,-999,-99.99,,,-99.99,,2013-02-15 17:21:00,
2013-02-15 12:32:00,55.0,-99.9,30.14,ENE,64,10.0,11.0,-999,-99.99,,,-99.99,,2013-02-15 17:32:00,
2013-02-15 12:42:00,55.0,-99.9,30.14,ENE,63,10.0,13.0,-999,-99.99,,,-99.99,,2013-02-15 17:42:00,
2013-02-15 12:52:00,55.0,-99.9,30.14,ENE,58,10.0,14.0,-999,-99.99,,,-99.99,,2013-02-15 17:52:00,
2013-02-15 13:02:00,55.0,-99.9,30.14,NE,55,8.0,12.0,-999,-99.99,,,-99.99,,2013-02-15 18:02:00,
2013-02-15 13:12:00,55.0,-99.9,30.13,ENE,59,10.0,12.0,-999,-99.99,,,-99.99,,2013-02-15 18:12:00,
2013-02-15 13:22:00,55.0,-99.9,30.12,NE,53,11.0,12.0,-999,-99.99,,,-99.99,,2013-02-15 18:22:00,
2013-02-15 13:32:00,55.0,-99.9,30.12,NE,50,10.0,13.0,-999,-99.99,,,-99.99,,2013-02-15 18:32:00,
2013-02-15 13:42:00,55.0,-99.9,30.12,NE,46,10.0,13.0,-999,-99.99,,,-99.99,,2013-02-15 18:42:00,
2013-02-15 13:53:00,55.0,-99.9,30.11,NE,48,10.0,13.0,-999,-99.99,,,-99.99,,2013-02-15 18:53:00,
2013-02-15 14:02:00,55.0,-99.9,30.11,NE,49,11.0,14.0,-999,-99.99,,,-99.99,,2013-02-15 19:02:00,
2013-02-15 14:11:00,55.0,-99.9,30.10,NE,44,11.0,14.0,-999,-99.99,,,-99.99,,2013-02-15 19:11:00,
2013-02-15 14:22:00,55.0,-99.9,30.10,NE,53,10.0,14.0,-999,-99.99,,,-99.99,,2013-02-15 19:22:00,
2013-02-15 14:32:00,55.0,-99.9,30.09,ENE,57,12.0,14.0,-999,-99.99,,,-99.99,,2013-02-15 19:32:00,
2013-02-15 14:42:00,55.0,-99.9,30.09,NE,49,12.0,13.0,-999,-99.99,,,-99.99,,2013-02-15 19:42:00,
2013-02-15 14:52:00,55.0,-99.9,30.09,NE,53,13.0,15.0,-999,-99.99,,,-99.99,,2013-02-15 19:52:00,
2013-02-15 15:02:00,55.0,-99.9,30.09,ENE,59,12.0,16.0,-999,-99.99,,,-99.99,,2013-02-15 20:02:00,
2013-02-15 15:11:00,55.0,-99.9,30.08,NE,52,11.0,13.0,-999,-99.99,,,-99.99,,2013-02-15 20:11:00,
2013-02-15 15:22:00,55.0,-99.9,30.08,NE,52,12.0,14.0,-999,-99.99,,,-99.99,,2013-02-15 20:22:00,
2013-02-15 15:32:00,55.0,-99.9,30.07,NE,50,12.0,14.0,-999,-99.99,,,-99.99,,2013-02-15 20:32:00,
2013-02-15 15:42:00,56.0,-99.9,30.06,ENE,60,12.0,14.0,-999,-99.99,,,-99.99,,2013-02-15 20:42:00,
2013-02-15 15:53:00,56.0,-99.9,30.06,NE,51,10.0,13.0,-999,-99.99,,,-99.99,,2013-02-15 20:53:00,
2013-02-15 16:02:00,56.0,-99.9,30.06,NE,56,10.0,12.0,-999,-99.99,,,-99.99,,2013-02-15 21:02:00,
2013-02-15 16:11:00,56.0,-99.9,30.06,ENE,62,10.0,12.0,-999,-99.99,,,-99.99,,2013-02-15 21:11:00,
2013-02-15 16:22:00,56.0,-99.9,30.06,ENE,60,10.0,12.0,-999,-99.99,,,-99.99,,2013-02-15 21:22:00,
2013-02-15 16:32:00,56.0,-99.9,30.06,NE,52,10.0,12.0,-999,-99.99,,,-99.99,,2013-02-15 21:32:00,
2013-02-15 16:42:00,56.0,-99.9,30.05,NE,56,10.0,12.0,-999,-99.99,,,-99.99,,2013-02-15 21:42:00,
2013-02-15 16:52:00,56.0,-99.9,30.05,ENE,61,9.0,12.0,-999,-99.99,,,-99.99,,2013-02-15 21:52:00,
2013-02-15 17:02:00,56.0,-99.9,30.05,NE,54,10.0,11.0,-999,-99.99,,,-99.99,,2013-02-15 22:02:00,
2013-02-15 17:12:00,56.0,-99.9,30.05,NE,52,10.0,11.0,-999,-99.99,,,-99.99,,2013-02-15 22:12:00,
2013-02-15 17:22:00,57.0,-99.9,30.05,ENE,57,9.0,11.0,-999,-99.99,,,-99.99,,2013-02-15 22:22:00,
2013-02-15 17:32:00,57.0,-99.9,30.05,ENE,61,9.0,11.0,-999,-99.99,,,-99.99,,2013-02-15 22:32:00,
2013-02-15 17:42:00,57.0,-99.9,30.05,ENE,64,8.0,9.0,-999,-99.99,,,-99.99,,2013-02-15 22:42:00,
2013-02-15 17:52:00,57.0,-99.9,30.05,ENE,67,8.0,11.0,-999,-99.99,,,-99.99,,2013-02-15 22:52:00,
2013-02-15 18:02:00,57.0,-99.9,30.05,ENE,74,8.0,11.0,-999,-99.99,,,-99.99,,2013-02-15 23:02:00,
2013-02-15 18:11:00,57.0,-99.9,30.05,ENE,74,8.0,11.0,-999,-99.99,,,-99.99,,2013-02-15 23:11:00,
2013-02-15 18:21:00,57.0,-99.9,30.05,East,80,6.0,9.0,-999,-99.99,,,-99.99,,2013-02-15 23:21:00,
2013-02-15 18:32:00,57.0,-99.9,30.05,East,83,5.0,9.0,-999,-99.99,,,-99.99,,2013-02-15 23:32:00,
2013-02-15 18:42:00,56.0,-99.9,30.05,ENE,78,5.0,8.0,-999,-99.99,,,-99.99,,2013-02-15 23:42:00,
2013-02-15 18:52:00,56.0,-99.9,30.05,East,86,6.0,8.0,-999,-99.99,,,-99.99,,2013-02-15 23:52:00,
2013-02-15 19:02:00,56.0,-99.9,30.05,East,97,6.0,8.0,-999,-99.99,,,-99.99,,2013-02-16 00:02:00,
2013-02-15 19:12:00,56.0,-99.9,30.05,East,84,6.0,8.0,-999,-99.99,,,-99.99,,2013-02-16 00:12:00,
2013-02-15 19:22:00,56.0,-99.9,30.05,East,83,6.0,8.0,-999,-99.99,,,-99.99,,2013-02-16 00:22:00,
2013-02-15 19:32:00,56.0,-99.9,30.05,East,93,5.0,7.0,-999,-99.99,,,-99.99,,2013-02-16 00:32:00,
2013-02-15 19:42:00,56.0,-99.9,30.05,East,95,5.0,8.0,-999,-99.99,,,-99.99,,2013-02-16 00:42:00,
2013-02-15 19:52:00,56.0,-99.9,30.05,East,94,4.0,7.0,-999,-99.99,,,-99.99,,2013-02-16 00:52:00,
2013-02-15 20:02:00,56.0,-99.9,30.06,ESE,109,4.0,5.0,-999,-99.99,,,-99.99,,2013-02-16 01:02:00,
2013-02-15 20:11:00,55.0,-99.9,30.05,ESE,117,2.0,5.0,-999,-99.99,,,-99.99,,2013-02-16 01:11:00,
2013-02-15 20:21:00,55.0,-99.9,30.05,ESE,115,3.0,5.0,-999,-99.99,,,-99.99,,2013-02-16 01:21:00,
2013-02-15 20:32:00,55.0,-99.9,30.05,ESE,109,3.0,4.0,-999,-99.99,,,-99.99,,2013-02-16 01:32:00,
2013-02-15 20:42:00,55.0,-99.9,30.06,SE,127,2.0,3.0,-999,-99.99,,,-99.99,,2013-02-16 01:42:00,
2013-02-15 20:52:00,56.0,-99.9,30.06,SE,141,3.0,4.0,-999,-99.99,,,-99.99,,2013-02-16 01:52:00,
2013-02-15 21:01:00,56.0,-99.9,30.06,SSE,150,3.0,4.0,-999,-99.99,,,-99.99,,2013-02-16 02:01:00,
2013-02-15 21:11:00,55.0,-99.9,30.06,SE,143,1.0,3.0,-999,-99.99,,,-99.99,,2013-02-16 02:11:00,
2013-02-15 21:22:00,55.0,-99.9,30.06,SSE,154,3.0,4.0,-999,-99.99,,,-99.99,,2013-02-16 02:22:00,
2013-02-15 21:32:00,55.0,-99.9,30.06,SSE,155,1.0,2.0,-999,-99.99,,,-99.99,,2013-02-16 02:32:00,
2013-02-15 21:42:00,55.0,-99.9,30.06,WSW,242,2.0,2.0,-999,-99.99,,,-99.99,,2013-02-16 02:42:00,
2013-02-15 21:52:00,55.0,-99.9,30.06,WSW,241,2.0,2.0,-999,-99.99,,,-99.99,,2013-02-16 02:52:00,
2013-02-15 22:02:00,55.0,-99.9,30.06,West,275,1.0,2.0,-999,-99.99,,,-99.99,,2013-02-16 03:02:00,
2013-02-15 22:11:00,55.0,-99.9,30.06,West,280,1.0,2.0,-999,-99.99,,,-99.99,,2013-02-16 03:11:00,
2013-02-15 22:22:00,55.0,-99.9,30.06,WNW,296,1.0,2.0,-999,-99.99,,,-99.99,,2013-02-16 03:22:00,
2013-02-15 22:32:00,54.0,-99.9,30.06,WNW,299,2.0,2.0,-999,-99.99,,,-99.99,,2013-02-16 03:32:00,
2013-02-15 22:42:00,54.0,-99.9,30.06,WSW,243,1.0,1.0,-999,-99.99,,,-99.99,,2013-02-16 03:42:00,
2013-02-15 22:52:00,54.0,-99.9,30.06,West,267,1.0,2.0,-999,-99.99,,,-99.99,,2013-02-16 03:52:00,
2013-02-15 23:01:00,54.0,-99.9,30.05,WNW,295,1.0,2.0,-999,-99.99,,,-99.99,,2013-02-16 04:01:00,
2013-02-15 23:11:00,54.0,-99.9,30.05,NNW,340,1.0,2.0,-999,-99.99,,,-99.99,,2013-02-16 04:11:00,
2013-02-15 23:21:00,53.0,-99.9,30.05,NW,318,-999.0,2.0,-999,-99.99,,,-99.99,,2013-02-16 04:21:00,
2013-02-15 23:32:00,53.0,-99.9,30.05,West,274,2.0,2.0,-999,-99.99,,,-99.99,,2013-02-16 04:32:00,
2013-02-15 23:42:00,54.0,-99.9,30.04,WNW,293,2.0,2.0,-999,-99.99,,,-99.99,,2013-02-16 04:42:00,
2013-02-15 23:52:00,54.0,-99.9,30.04,WNW,298,2.0,2.0,-999,-99.99,,,-99.99,,2013-02-16 04:52:00,